COSMOS 2100

导读 | 星芒AI

COSMOS 2100 是一颗由俄罗斯发射的军用通信卫星,于1991年12月21日使用质子-K火箭从拜科努尔航天发射场发射升空。该卫星属于俄罗斯的军事通信系统,用于支持战略和战术层面的通信需求。COSMOS 2100 的具体任务细节未公开,但其设计和功能表明它在冷战后期的军事通信体系中发挥了重要作用。该卫星最终在轨道上运行多年后失效,成为太空碎片的一部分。

基本信息
目录编号:
20804
目录名称:
COSMOS 2100
国际标识:
1990-083A
轨道中心:
EARTH
卫星名称:
COSMOS 2100
卫星全名:
--
卫星状态:
在轨 (已飞行12829 天)
发射日期:
1990-09-14 UTC
国别 :
俄罗斯(独联体) (CIS)
星等 :
--
轨道信息
数据来源 国际轨道数据
星历时间: 2025-10-28T21:35:43+0800
17小时前
查看轨道信息
半长轴: 7361.45km
偏心率: 0.0036376
轨道倾角: 82.940°
近地点辐角 201.921°
升交点赤经 339.359°
平近点角 310.644°
近地点: 956.536km
远地点: 1010.094km
周期: 104.762分钟
每日圈数: 13.745411
详细信息
使用方式:
暂无
2D轨道图
3D轨道图
轨道高度分析图
轨道倾角分析图
轨道综合分析图
查看轨道综合分析图